TimeCST,TemperatureF,Dew PointF,Humidity,Sea Level PressureIn,VisibilityMPH,Wind Direction,Wind SpeedMPH,Gust SpeedMPH,PrecipitationIn,Events,Conditions,WindDirDegrees,DateUTC
12:15 AM,44.6,35.6,71,29.78,10.0,NE,3.5,-,N/A,,Overcast,50,2013-02-13 06:15:00
12:35 AM,44.6,35.6,71,29.76,10.0,Calm,Calm,-,N/A,,Overcast,0,2013-02-13 06:35:00
12:55 AM,44.6,37.4,76,29.75,10.0,SE,3.5,-,N/A,,Overcast,130,2013-02-13 06:55:00
1:15 AM,44.6,37.4,76,29.75,10.0,Calm,Calm,-,N/A,,Overcast,0,2013-02-13 07:15:00
1:35 AM,44.6,37.4,76,29.74,7.0,ESE,3.5,-,N/A,,Light Drizzle,110,2013-02-13 07:35:00
1:55 AM,44.6,39.2,81,29.74,5.0,ESE,3.5,-,N/A,,Drizzle,120,2013-02-13 07:55:00
2:15 AM,42.8,41.0,93,29.72,7.0,SE,5.8,-,N/A,,Overcast,130,2013-02-13 08:15:00
2:35 AM,44.6,41.0,87,29.71,4.0,SE,9.2,-,N/A,,Drizzle,140,2013-02-13 08:35:00
2:55 AM,44.6,41.0,87,29.70,3.0,SE,8.1,-,N/A,,Drizzle,140,2013-02-13 08:55:00
3:15 AM,44.6,41.0,87,29.70,3.0,SSE,4.6,-,N/A,,Drizzle,150,2013-02-13 09:15:00
3:35 AM,44.6,41.0,87,29.70,3.0,SSE,3.5,-,N/A,,Drizzle,160,2013-02-13 09:35:00
3:55 AM,44.6,41.0,87,29.70,3.0,South,4.6,-,N/A,,Drizzle,170,2013-02-13 09:55:00
4:15 AM,44.6,42.8,93,29.71,3.0,Calm,Calm,-,N/A,,Drizzle,0,2013-02-13 10:15:00
4:35 AM,44.6,42.8,93,29.71,2.5,Calm,Calm,-,N/A,,Drizzle,0,2013-02-13 10:35:00
4:55 AM,44.6,42.8,93,29.70,2.5,Calm,Calm,-,N/A,,Drizzle,0,2013-02-13 10:55:00
5:15 AM,44.6,42.8,93,29.71,2.5,South,4.6,-,0.01,,Drizzle,190,2013-02-13 11:15:00
5:35 AM,44.6,42.8,93,29.71,2.5,SSW,8.1,-,0.01,,Heavy Drizzle,200,2013-02-13 11:35:00
5:55 AM,44.6,42.8,93,29.72,4.0,SW,4.6,-,0.01,,Light Drizzle,220,2013-02-13 11:55:00
6:15 AM,44.6,42.8,93,29.73,5.0,SW,8.1,16.1,N/A,,Overcast,230,2013-02-13 12:15:00
6:35 AM,44.6,42.8,93,29.74,7.0,WSW,16.1,19.6,N/A,,Overcast,240,2013-02-13 12:35:00
6:55 AM,44.6,42.8,93,29.74,3.0,WSW,11.5,20.7,N/A,,Drizzle,240,2013-02-13 12:55:00
7:15 AM,44.6,41.0,87,29.75,4.0,WSW,10.4,17.3,N/A,,Light Drizzle,240,2013-02-13 13:15:00
7:35 AM,44.6,39.2,81,29.78,10.0,WSW,13.8,21.9,N/A,,Overcast,240,2013-02-13 13:35:00
7:55 AM,42.8,39.2,87,29.78,10.0,WSW,11.5,18.4,N/A,,Overcast,250,2013-02-13 13:55:00
8:15 AM,42.8,39.2,87,29.78,10.0,WSW,10.4,-,N/A,,Overcast,240,2013-02-13 14:15:00
8:35 AM,42.8,39.2,87,29.80,10.0,WSW,11.5,16.1,N/A,,Overcast,250,2013-02-13 14:35:00
8:55 AM,42.8,39.2,87,29.80,10.0,West,11.5,-,N/A,,Overcast,260,2013-02-13 14:55:00
9:15 AM,44.6,37.4,76,29.81,10.0,West,11.5,-,N/A,,Overcast,260,2013-02-13 15:15:00
9:35 AM,42.8,37.4,81,29.81,7.0,West,10.4,-,N/A,,Overcast,270,2013-02-13 15:35:00
9:55 AM,44.6,39.2,81,29.81,10.0,West,9.2,-,N/A,,Overcast,260,2013-02-13 15:55:00
10:15 AM,44.6,37.4,76,29.82,10.0,West,12.7,21.9,N/A,,Overcast,270,2013-02-13 16:15:00
10:35 AM,44.6,37.4,76,29.83,10.0,West,11.5,16.1,N/A,,Overcast,270,2013-02-13 16:35:00
10:55 AM,44.6,37.4,76,29.84,10.0,West,11.5,19.6,N/A,,Overcast,280,2013-02-13 16:55:00
11:15 AM,44.6,37.4,76,29.84,10.0,WNW,11.5,17.3,N/A,,Overcast,300,2013-02-13 17:15:00
11:35 AM,44.6,37.4,76,29.83,10.0,WNW,11.5,-,N/A,,Overcast,300,2013-02-13 17:35:00
11:55 AM,42.8,35.6,76,29.86,10.0,NW,15.0,21.9,N/A,,Overcast,320,2013-02-13 17:55:00
12:15 PM,41.0,35.6,81,29.86,10.0,NW,11.5,19.6,N/A,,Overcast,320,2013-02-13 18:15:00
12:35 PM,41.0,35.6,81,29.86,10.0,NW,11.5,-,N/A,,Overcast,320,2013-02-13 18:35:00
12:55 PM,41.0,33.8,76,29.87,10.0,NNW,11.5,-,N/A,,Overcast,330,2013-02-13 18:55:00
1:15 PM,41.0,33.8,76,29.87,10.0,NNW,13.8,-,N/A,,Overcast,330,2013-02-13 19:15:00
1:35 PM,41.0,32.0,70,29.87,10.0,NNW,15.0,-,N/A,,Overcast,340,2013-02-13 19:35:00
1:55 PM,41.0,32.0,70,29.88,10.0,NNW,11.5,-,N/A,,Overcast,330,2013-02-13 19:55:00
2:15 PM,41.0,32.0,70,29.89,10.0,NNW,12.7,-,N/A,,Overcast,340,2013-02-13 20:15:00
2:35 PM,41.0,32.0,70,29.90,10.0,NNW,12.7,-,N/A,,Overcast,340,2013-02-13 20:35:00
2:55 PM,41.0,32.0,70,29.92,10.0,NNW,11.5,-,N/A,,Overcast,330,2013-02-13 20:55:00
3:15 PM,41.0,33.8,76,29.92,10.0,NW,8.1,-,N/A,,Overcast,310,2013-02-13 21:15:00
3:35 PM,41.0,32.0,70,29.93,10.0,NNW,6.9,-,N/A,,Overcast,330,2013-02-13 21:35:00
3:55 PM,41.0,32.0,70,29.93,10.0,NNW,6.9,-,N/A,,Overcast,330,2013-02-13 21:55:00
4:15 PM,41.0,32.0,70,29.94,10.0,NNW,8.1,-,N/A,,Overcast,340,2013-02-13 22:15:00
4:35 PM,41.0,32.0,70,29.94,10.0,NW,6.9,-,N/A,,Overcast,320,2013-02-13 22:35:00
4:55 PM,41.0,32.0,70,29.94,10.0,NW,5.8,-,N/A,,Overcast,320,2013-02-13 22:55:00
5:15 PM,41.0,32.0,70,29.95,10.0,NW,3.5,-,N/A,,Overcast,320,2013-02-13 23:15:00
5:35 PM,41.0,32.0,70,29.95,10.0,Calm,Calm,-,N/A,,Mostly Cloudy,0,2013-02-13 23:35:00
5:55 PM,41.0,32.0,70,29.96,10.0,Calm,Calm,-,N/A,,Overcast,0,2013-02-13 23:55:00
6:15 PM,41.0,32.0,70,29.96,10.0,Calm,Calm,-,N/A,,Overcast,0,2013-02-14 00:15:00
6:35 PM,41.0,32.0,70,29.97,10.0,Calm,Calm,-,N/A,,Overcast,0,2013-02-14 00:35:00
6:55 PM,41.0,32.0,70,29.97,10.0,West,3.5,-,N/A,,Overcast,280,2013-02-14 00:55:00
7:15 PM,41.0,32.0,70,29.97,10.0,Calm,Calm,-,N/A,,Overcast,0,2013-02-14 01:15:00
7:35 PM,39.2,32.0,75,29.98,10.0,Calm,Calm,-,N/A,,Overcast,0,2013-02-14 01:35:00
7:55 PM,41.0,32.0,70,29.99,10.0,Calm,Calm,-,N/A,,Overcast,0,2013-02-14 01:55:00
8:15 PM,41.0,32.0,70,30.00,10.0,West,3.5,-,N/A,,Overcast,280,2013-02-14 02:15:00
8:35 PM,41.0,32.0,70,30.00,10.0,West,3.5,-,N/A,,Overcast,280,2013-02-14 02:35:00
8:55 PM,41.0,32.0,70,30.01,10.0,Calm,Calm,-,N/A,,Overcast,0,2013-02-14 02:55:00
9:15 PM,41.0,32.0,70,30.01,10.0,WSW,3.5,-,N/A,,Overcast,250,2013-02-14 03:15:00
9:35 PM,41.0,32.0,70,30.02,10.0,WSW,3.5,-,N/A,,Overcast,250,2013-02-14 03:35:00
9:55 PM,41.0,32.0,70,30.02,10.0,West,4.6,-,N/A,,Overcast,260,2013-02-14 03:55:00
10:15 PM,41.0,32.0,70,30.02,10.0,Calm,Calm,-,N/A,,Overcast,0,2013-02-14 04:15:00
10:35 PM,41.0,32.0,70,30.03,10.0,Calm,Calm,-,N/A,,Overcast,0,2013-02-14 04:35:00
10:55 PM,41.0,32.0,70,30.03,10.0,West,4.6,-,N/A,,Overcast,280,2013-02-14 04:55:00
11:15 PM,41.0,32.0,70,30.03,10.0,West,3.5,-,N/A,,Overcast,280,2013-02-14 05:15:00
11:35 PM,41.0,32.0,70,30.03,10.0,West,3.5,-,N/A,,Overcast,280,2013-02-14 05:35:00
11:55 PM,41.0,32.0,70,30.03,10.0,Calm,Calm,-,N/A,,Overcast,0,2013-02-14 05:55:00